Weather Roundup
Issued by NWS Springfield, MO

Home | Current Version | Previous Version | Text Only | Print | Product List | Glossary On
Versions: 1 2 3 4 5 6 7 8 9 10 11 12 13 14 15 16 17 18 19 20 21 22 23 24 25 26 27 28 29 30 31 32 33 34 35 36 37 38 39 40 41 42 43 44 45 46 47 48 49 50
000
NZUS99 KSGF 041707
HRRSGF

HOURLY WEATHER
NATIONAL WEATHER SERVICE SPRINGFIELD MO
1100 AM CST SUN DEC 04 2016

......SGF CWA......

CITY           SKY/WX    TMP DP  RH WIND       PRES   REMARKS
SPRINGFIELD    CLOUDY    43  40  89 W10       30.01R
JOPLIN         CLOUDY    44  42  93 NW13      30.05F
WEST PLAINS    CLOUDY    39  38  96 SW6       30.02S WCI  35
ROLLA          LGT RAIN  36  35  96 SW9       29.98F FOG     WCI  29
OSAGE BEACH    LGT RAIN  38  37  97 W6        30.02S WCI  33
BRANSON        CLOUDY    39  39 100 CALM      30.03S FOG

......SURROUNDING SGF CWA......

CITY           SKY/WX    TMP DP  RH WIND       PRES   REMARKS
CHANUTE        CLOUDY    45  39  79 W12       30.04F
PARSONS        PTSUNNY   46  39  76 NW8       30.06F
COFFEYVILLE    CLOUDY    45  40  82 NW10      30.06F
EMPORIA        CLOUDY    41  38  89 W10       30.04S
GROVE OK       CLOUDY    45  43  93 W9        30.07F
ROGERS AR      CLOUDY    44  42  93 NW9       30.03F
SILOAM SPRINGS CLOUDY    45  39  81 NW9       30.04S
HARRISON AR    CLOUDY    42  41  96 NW3       30.02S
NEAR YELLVILLE CLOUDY    41  36  81 CALM      30.01S

......KANSAS AND MISSOURI......

CITY           SKY/WX    TMP DP  RH WIND       PRES   REMARKS
KANSAS CTY INT CLOUDY    41  36  82 W7        30.01S
DOWNTOWN KC    CLOUDY    42  38  85 W6        30.01F
COLUMBIA       LGT SNOW  33  32  96 SW5       30.00F VSB 1   WCI  29
SEDALIA        CLOUDY    37  35  92 W5        30.03S WCI  33
ST JOSEPH      CLOUDY    39  35  86 W10       30.02S WCI  32
ST LOUIS       LGT RAIN  40  36  86 S5        29.99F FOG
SPIRIT OF STL  LGT RAIN  39  38  96 SW3       30.00F FOG
KIRKSVILLE     LGT SNOW  33  33 100 CALM      30.00F FOG
WICHITA        PTSUNNY   38  37  97 NW7       30.06F WCI  33
TOPEKA         CLOUDY    41  37  86 W9        30.03F
OLATHE         CLOUDY    40  37  89 W7        30.01S

......TENNESSEE......

CITY           SKY/WX    TMP DP  RH WIND       PRES   REMARKS
MEMPHIS        CLOUDY    48  45  89 S6        29.99F FOG
NASHVILLE      DRIZZLE   47  44  90 SE8       30.00F

......ARKANSAS.......

CITY           SKY/WX    TMP DP  RH WIND       PRES   REMARKS
FAYETTEVILLE   CLOUDY    43  43 100 W7        30.05R
FT SMITH       CLOUDY    46  42  86 NW7       30.06S
LITTLE ROCK    CLOUDY    43  43 100 N7        30.04S

......OKLAHOMA.......

CITY           SKY/WX    TMP DP  RH WIND       PRES   REMARKS
TULSA          CLOUDY    48  45  89 NW9       30.06F
PONCA CITY     PTSUNNY   47  39  74 N7        30.07F
MCALESTER      CLOUDY    48  43  82 N9        30.08R
OKLAHOMA CITY  PTSUNNY   47  42  83 N15       30.08S

......IOWA............

CITY           SKY/WX    TMP DP  RH WIND       PRES   REMARKS
DES MOINES     CLOUDY    35  33  92 SW7       29.97F WCI  29
QUAD CITIES    HVY SNOW  32  30  92 SE8       30.00F VSB 1/4 WCI  25

......ILLINOIS........

CITY           SKY/WX    TMP DP  RH WIND       PRES   REMARKS
QUINCY         SNOW      32  32 100 E8        29.99F VSB 1/2 WCI  25
CHICAGO        SNOW      32  30  92 S5        30.05F VSB 1/2 WCI  27



USA.gov is the U.S. government's official web portal to all federal, state and local government web resources and services.